This is the latest recevied weather packets stored in our database for station/object EA2KR-10. If no packets are shown the sender has not sent any weather packets the latest 10 day(s).
| Time | Temp. | Humidity | Pressure | Rain* | Wind** | Luminosity | Snow |
|---|---|---|---|---|---|---|---|
| 1788096805 | 42.78° C | 21% | 1028.9 hPa | - | - | - | - |
| 1788095006 | 41.67° C | 22% | 1029.1 hPa | - | - | - | - |
| 1788093204 | 40.56° C | 24% | 1029.5 hPa | - | - | - | - |
| 1788091404 | 38.89° C | 26% | 1029.6 hPa | - | - | - | - |
| 1788089604 | 37.78° C | 28% | 1029.7 hPa | - | - | - | - |
| 1788087804 | 36.11° C | 30% | 1030 hPa | - | - | - | - |
| 1788086004 | 33.89° C | 32% | 1030.1 hPa | - | - | - | - |
| 1788084203 | 32.22° C | 34% | 1030.2 hPa | - | - | - | - |
| 1788082403 | 30° C | 35% | 1030.4 hPa | - | - | - | - |
| 1788080603 | 28.33° C | 37% | 1030.4 hPa | - | - | - | - |
| 1788078803 | 26.67° C | 39% | 1030.3 hPa | - | - | - | - |
| 1788077003 | 25° C | 40% | 1030.1 hPa | - | - | - | - |
| 1788075203 | 23.89° C | 41% | 1029.9 hPa | - | - | - | - |
| 1788073403 | 22.78° C | 41% | 1030 hPa | - | - | - | - |
| 1788071605 | 21.67° C | 41% | 1029.8 hPa | - | - | - | - |
| 1788069805 | 21.67° C | 40% | 1029.7 hPa | - | - | - | - |
| 1788068004 | 22.22° C | 40% | 1029.7 hPa | - | - | - | - |
| 1788066204 | 22.22° C | 40% | 1029.6 hPa | - | - | - | - |
| 1788064404 | 22.22° C | 39% | 1029.6 hPa | - | - | - | - |
| 1788062604 | 22.78° C | 39% | 1029.8 hPa | - | - | - | - |
| 1788060804 | 22.78° C | 38% | 1029.9 hPa | - | - | - | - |
| 1788059004 | 23.33° C | 38% | 1030.1 hPa | - | - | - | - |
| 1788057204 | 23.33° C | 37% | 1030.3 hPa | - | - | - | - |
| 1788055404 | 23.89° C | 37% | 1030.4 hPa | - | - | - | - |
| 1788053604 | 24.44° C | 36% | 1030.4 hPa | - | - | - | - |
* Rain since midnight (hover to see other rain measurements)
** Current wind speed in m/s (hover to see current wind gust speed)